Home > Weather > Locarno > Past weeks

Flag for Switzerland Past Weather in Locarno, Ticino, Switzerland — Yesterday and Last 2 Weeks

Now
76 °F

Mild.


Feels Like: 78 °F
Forecast: 53 / 69 °F
Wind: 2 mph from Northeast

Location: Locarno-Monti

Current Time: Jul 29, 2016 at 11:42:30 PM

Latest Report: Jul 29, 2016 at 10:00 PM


Visibility: N/A

Pressure: 29.95 "Hg

Humidity: 64%

Dew Point: 63 °F

Location of LocarnoLocation

Past Weather in Locarno — Graph

°F

Locarno Temperature Yesterday

Maximum temperature yesterday: 82 °F (at 6:00 PM)
Minimum temperature yesterday: 63 °F (at 6:00 AM)
Average temperature yesterday: 71 °F

High & Low Weather Summary for the Past Weeks

 TemperatureHumidityPressure
High87 °F (Jul 20, 4:00 PM)99% (Jul 23, 2:00 PM)30.17 "Hg (Jul 23, 2:00 PM)
Low59 °F (Jul 15, 5:00 AM)22% (Jul 16, 7:00 PM)29.90 "Hg (Jul 27, 6:00 PM)
Average73 °F61%30.03 "Hg
* Reported Jul 14 10:00 PM — Jul 29 10:00 PM, Locarno, Weather by CustomWeather, © 2016

Note: Actual official high and low records may vary slightly from our data, if they occured in-between our weather recording intervals... More about our weather records

Advertising

Locarno Weather History for the Previous 24 Hours

Scroll right to see more
 ConditionsComfort  
Time TempWeatherWind HumidityBarometerVisibility
10:00 PM
Fri, Jul 29
76 °FMild.2 mph64%29.95 "HgN/A
9:00 PM78 °FWarm.3 mph55%29.92 "HgN/A
8:00 PM80 °FPassing clouds.3 mph54%29.91 "Hg11 mi
7:00 PM82 °FWarm.6 mph49%29.90 "HgN/A
6:00 PM83 °FWarm.5 mph51%29.91 "HgN/A
5:00 PM85 °FPassing clouds.6 mph49%29.91 "Hg9 mi
4:00 PM83 °FWarm.7 mph49%29.93 "HgN/A
3:00 PM84 °FWarm.5 mph57%29.94 "HgN/A
2:00 PM80 °FPassing clouds.6 mph57%29.95 "Hg9 mi
1:00 PM78 °FWarm.5 mph56%29.97 "HgN/A
12:00 PM79 °FWarm.3 mph54%29.97 "HgN/A
11:00 AM76 °FPassing clouds.3 mph62%29.98 "Hg11 mi
10:00 AM72 °FMild.2 mph67%30.00 "HgN/A
9:00 AM69 °FMild.2 mph80%30.01 "HgN/A
8:00 AM66 °FPartly sunny.2 mph85%30.02 "Hg11 mi
7:00 AM65 °FMild.1 mph84%30.01 "HgN/A
6:00 AM66 °FMild.No wind80%30.01 "HgN/A
5:00 AM66 °FMild.No wind79%30.01 "HgN/A
4:00 AM67 °FMild.1 mph76%30.00 "HgN/A
3:00 AM68 °FMild.1 mph75%30.00 "HgN/A
2:00 AM70 °FMild.1 mph70%30.00 "HgN/A
1:00 AM69 °FMild.2 mph72%30.00 "HgN/A
12:00 AM71 °FMild.2 mph65%29.98 "HgN/A
11:00 PM
Thu, Jul 28
72 °FMild.2 mph62%29.97 "HgN/A
Weather by CustomWeather, © 2016

See weather overviewHow to use our weather pages